Time,TemperatureF,DewpointF,PressureIn,WindDirection,WindDirectionDegrees,WindSpeedMPH,WindSpeedGustMPH,Humidity,HourlyPrecipIn,Conditions,Clouds,dailyrainin,SoftwareType,DateUTC
2013-12-08 00:01:00,33.6,31.0,30.41,NNW,345,8.1,8.1,90,0.00,RA,,0.00,WeatherDisplay:10.37,2013-12-08 05:01:00,
2013-12-08 00:02:00,33.6,31.0,30.41,East,83,3.5,3.5,90,0.00,RA,,0.00,WeatherDisplay:10.37,2013-12-08 05:02:00,
2013-12-08 00:07:00,33.6,31.0,30.40,ENE,72,4.6,4.6,90,0.00,RA,,0.00,WeatherDisplay:10.37,2013-12-08 05:07:00,
2013-12-08 00:12:00,33.6,31.0,30.40,ENE,70,6.9,6.9,90,0.00,,,0.00,WeatherDisplay:10.37,2013-12-08 05:12:00,
2013-12-08 00:17:00,33.7,30.8,30.40,NE,46,5.8,5.8,89,0.00,,,0.00,WeatherDisplay:10.37,2013-12-08 05:17:00,
2013-12-08 00:22:00,33.7,30.8,30.40,ENE,76,11.5,11.5,89,0.00,,,0.00,WeatherDisplay:10.37,2013-12-08 05:22:00,
2013-12-08 00:27:00,33.8,30.9,30.40,ENE,74,7.0,7.0,89,0.00,,,0.00,WeatherDisplay:10.37,2013-12-08 05:27:00,
2013-12-08 00:32:00,33.9,31.0,30.40,ENE,73,8.1,8.1,89,0.00,,,0.00,WeatherDisplay:10.37,2013-12-08 05:32:00,
2013-12-08 00:37:00,33.9,31.0,30.39,East,101,6.9,6.9,89,0.00,,,0.00,WeatherDisplay:10.37,2013-12-08 05:37:00,
2013-12-08 00:42:00,34.0,31.1,30.39,East,95,9.2,9.2,89,0.00,,,0.00,WeatherDisplay:10.37,2013-12-08 05:42:00,
2013-12-08 00:47:00,34.1,30.9,30.38,East,99,9.2,9.2,88,0.00,,,0.00,WeatherDisplay:10.37,2013-12-08 05:47:00,
2013-12-08 00:52:00,34.1,31.2,30.39,ENE,70,9.2,9.2,89,0.00,,,0.00,WeatherDisplay:10.37,2013-12-08 05:52:00,
2013-12-08 00:57:00,34.2,31.0,30.39,East,84,5.8,5.8,88,0.00,,,0.00,WeatherDisplay:10.37,2013-12-08 05:57:00,
2013-12-08 01:02:00,34.3,31.1,30.39,ENE,60,5.8,5.8,88,0.00,,,0.00,WeatherDisplay:10.37,2013-12-08 06:02:00,
2013-12-08 01:07:00,34.4,31.2,30.38,ENE,78,6.9,6.9,88,0.00,,,0.00,WeatherDisplay:10.37,2013-12-08 06:07:00,
2013-12-08 01:12:00,34.5,31.3,30.38,NE,46,3.5,3.5,88,0.00,,,0.00,WeatherDisplay:10.37,2013-12-08 06:12:00,
2013-12-08 01:17:00,34.6,31.4,30.38,East,80,3.5,3.5,88,0.00,,,0.00,WeatherDisplay:10.37,2013-12-08 06:17:00,
2013-12-08 01:22:00,34.7,31.5,30.38,East,96,6.0,6.0,88,0.00,,,0.00,WeatherDisplay:10.37,2013-12-08 06:22:00,
2013-12-08 01:27:00,34.8,31.6,30.38,SE,137,9.2,9.2,88,0.00,,,0.00,WeatherDisplay:10.37,2013-12-08 06:27:00,
2013-12-08 01:32:00,34.9,31.7,30.38,North,355,5.0,5.0,88,0.00,,,0.00,WeatherDisplay:10.37,2013-12-08 06:32:00,
2013-12-08 01:37:00,34.9,31.4,30.37,NNE,30,6.9,6.9,87,0.00,,,0.00,WeatherDisplay:10.37,2013-12-08 06:37:00,
2013-12-08 01:42:00,34.8,31.3,30.37,ENE,75,8.1,8.1,87,0.00,,,0.00,WeatherDisplay:10.37,2013-12-08 06:42:00,
2013-12-08 01:47:00,34.7,31.2,30.38,East,83,8.1,8.1,87,0.00,,,0.00,WeatherDisplay:10.37,2013-12-08 06:47:00,
2013-12-08 01:52:00,34.7,31.5,30.38,East,94,5.8,5.8,88,0.00,,,0.00,WeatherDisplay:10.37,2013-12-08 06:52:00,
2013-12-08 01:57:00,34.8,31.6,30.38,East,79,4.6,4.6,88,0.00,,,0.00,WeatherDisplay:10.37,2013-12-08 06:57:00,
2013-12-08 02:02:00,34.9,31.7,30.37,East,91,8.1,8.1,88,0.00,,,0.00,WeatherDisplay:10.37,2013-12-08 07:02:00,
2013-12-08 02:07:00,34.9,31.7,30.37,ENE,60,8.0,8.0,88,0.00,,,0.00,WeatherDisplay:10.37,2013-12-08 07:07:00,
2013-12-08 02:12:00,34.9,31.4,30.37,East,82,7.0,7.0,87,0.00,,,0.00,WeatherDisplay:10.37,2013-12-08 07:12:00,
2013-12-08 02:17:00,34.9,31.7,30.37,East,80,8.1,8.1,88,0.00,,,0.00,WeatherDisplay:10.37,2013-12-08 07:17:00,
2013-12-08 02:22:00,35.0,31.8,30.37,East,84,6.9,6.9,88,0.00,,,0.00,WeatherDisplay:10.37,2013-12-08 07:22:00,
2013-12-08 02:27:00,35.1,31.9,30.36,East,94,6.9,6.9,88,0.00,,,0.00,WeatherDisplay:10.37,2013-12-08 07:27:00,
2013-12-08 02:33:00,35.1,31.9,30.38,East,79,6.9,6.9,88,0.00,,,0.00,WeatherDisplay:10.37,2013-12-08 07:33:00,
2013-12-08 02:38:00,35.3,32.1,30.38,East,82,4.0,4.0,88,0.00,,,0.00,WeatherDisplay:10.37,2013-12-08 07:38:00,
2013-12-08 02:43:00,35.4,32.2,30.39,East,80,8.1,8.1,88,0.00,,,0.00,WeatherDisplay:10.37,2013-12-08 07:43:00,
2013-12-08 02:48:00,35.5,32.3,30.38,East,99,8.1,8.1,88,0.00,,,0.00,WeatherDisplay:10.37,2013-12-08 07:48:00,
2013-12-08 02:53:00,35.6,32.4,30.39,East,96,4.6,4.6,88,0.00,,,0.00,WeatherDisplay:10.37,2013-12-08 07:53:00,
2013-12-08 02:58:00,35.7,32.5,30.37,ENE,60,6.9,6.9,88,0.00,,,0.00,WeatherDisplay:10.37,2013-12-08 07:58:00,
2013-12-08 03:03:00,35.7,32.5,30.37,East,95,8.1,8.1,88,0.00,,,0.00,WeatherDisplay:10.37,2013-12-08 08:03:00,
2013-12-08 03:08:00,35.8,32.6,30.36,East,101,9.2,9.2,88,0.00,,,0.00,WeatherDisplay:10.37,2013-12-08 08:08:00,
2013-12-08 03:13:00,35.8,32.6,30.36,ENE,63,11.5,11.5,88,0.00,,,0.00,WeatherDisplay:10.37,2013-12-08 08:13:00,
2013-12-08 03:18:00,35.9,32.7,30.37,ENE,75,10.4,10.4,88,0.00,,,0.00,WeatherDisplay:10.37,2013-12-08 08:18:00,
2013-12-08 03:23:00,35.9,32.7,30.36,ENE,75,10.4,10.4,88,0.00,,,0.00,WeatherDisplay:10.37,2013-12-08 08:23:00,
2013-12-08 03:28:00,35.9,32.7,30.37,ESE,108,10.4,10.4,88,0.00,,,0.00,WeatherDisplay:10.37,2013-12-08 08:28:00,
2013-12-08 03:33:00,35.9,32.7,30.36,ENE,73,11.5,11.5,88,0.00,,,0.00,WeatherDisplay:10.37,2013-12-08 08:33:00,
2013-12-08 03:38:00,35.9,33.0,30.36,East,80,9.2,9.2,89,0.00,,,0.00,WeatherDisplay:10.37,2013-12-08 08:38:00,
2013-12-08 03:43:00,35.9,33.0,30.36,East,87,9.2,9.2,89,0.00,,,0.00,WeatherDisplay:10.37,2013-12-08 08:43:00,
2013-12-08 03:48:00,35.9,32.7,30.35,NE,35,11.5,11.5,88,0.00,,,0.00,WeatherDisplay:10.37,2013-12-08 08:48:00,
2013-12-08 03:53:00,35.9,32.7,30.35,ENE,69,10.4,10.4,88,0.00,,,0.00,WeatherDisplay:10.37,2013-12-08 08:53:00,
2013-12-08 03:58:00,35.9,32.7,30.36,East,83,10.0,10.0,88,0.00,,,0.00,WeatherDisplay:10.37,2013-12-08 08:58:00,
2013-12-08 04:03:00,36.0,32.8,30.35,East,99,9.2,9.2,88,0.00,,,0.00,WeatherDisplay:10.37,2013-12-08 09:03:00,
2013-12-08 04:08:00,35.9,33.0,30.35,ESE,105,10.4,10.4,89,0.00,,,0.00,WeatherDisplay:10.37,2013-12-08 09:08:00,
2013-12-08 04:13:00,35.9,33.0,30.35,East,91,10.4,10.4,89,0.00,,,0.00,WeatherDisplay:10.37,2013-12-08 09:13:00,
2013-12-08 04:18:00,35.7,33.1,30.34,ESE,103,11.5,11.5,90,0.00,,,0.00,WeatherDisplay:10.37,2013-12-08 09:18:00,
2013-12-08 04:23:00,35.7,33.1,30.34,ESE,108,3.5,3.5,90,0.00,,,0.00,WeatherDisplay:10.37,2013-12-08 09:23:00,
2013-12-08 04:28:00,35.7,33.1,30.35,NE,49,9.2,9.2,90,0.00,,,0.00,WeatherDisplay:10.37,2013-12-08 09:28:00,
2013-12-08 04:33:00,35.7,33.3,30.34,SE,129,9.2,9.2,91,0.00,,,0.00,WeatherDisplay:10.37,2013-12-08 09:33:00,
2013-12-08 04:38:00,35.7,33.3,30.35,ENE,78,5.8,5.8,91,0.00,,,0.00,WeatherDisplay:10.37,2013-12-08 09:38:00,
2013-12-08 04:43:00,35.7,33.3,30.33,ENE,75,9.2,9.2,91,0.00,,,0.00,WeatherDisplay:10.37,2013-12-08 09:43:00,
2013-12-08 04:48:00,35.7,33.3,30.33,East,82,6.9,6.9,91,0.00,,,0.00,WeatherDisplay:10.37,2013-12-08 09:48:00,
2013-12-08 04:53:00,35.7,33.3,30.33,ENE,73,10.4,10.4,91,0.01,RA,,0.01,WeatherDisplay:10.37,2013-12-08 09:53:00,
2013-12-08 04:58:00,35.7,33.3,30.33,ENE,78,8.1,8.1,91,0.01,RA,,0.01,WeatherDisplay:10.37,2013-12-08 09:58:00,
2013-12-08 05:03:00,35.7,33.3,30.32,East,85,11.5,11.5,91,0.01,,,0.01,WeatherDisplay:10.37,2013-12-08 10:03:00,
2013-12-08 05:08:00,35.7,33.3,30.32,ENE,78,10.4,10.4,91,0.01,,,0.01,WeatherDisplay:10.37,2013-12-08 10:08:00,
2013-12-08 05:13:00,35.7,33.3,30.32,ENE,75,12.7,12.7,91,0.01,,,0.01,WeatherDisplay:10.37,2013-12-08 10:13:00,
2013-12-08 05:18:00,35.8,33.4,30.32,East,85,11.5,11.5,91,0.01,,,0.01,WeatherDisplay:10.37,2013-12-08 10:18:00,
2013-12-08 05:23:00,35.7,33.3,30.32,East,87,8.1,8.1,91,0.01,,,0.01,WeatherDisplay:10.37,2013-12-08 10:23:00,
2013-12-08 05:28:00,35.8,33.4,30.31,East,91,11.5,11.5,91,0.01,,,0.01,WeatherDisplay:10.37,2013-12-08 10:28:00,
2013-12-08 05:33:00,35.8,33.4,30.32,East,92,12.7,12.7,91,0.01,,,0.01,WeatherDisplay:10.37,2013-12-08 10:33:00,
2013-12-08 05:38:00,35.8,33.4,30.32,NNE,19,11.5,11.5,91,0.01,,,0.01,WeatherDisplay:10.37,2013-12-08 10:38:00,
2013-12-08 05:43:00,35.9,33.5,30.31,ENE,68,9.2,9.2,91,0.01,,,0.01,WeatherDisplay:10.37,2013-12-08 10:43:00,
2013-12-08 05:48:00,35.9,33.5,30.31,ESE,107,11.5,11.5,91,0.01,,,0.01,WeatherDisplay:10.37,2013-12-08 10:48:00,
2013-12-08 05:53:00,36.0,33.6,30.32,ENE,73,11.5,11.5,91,0.00,,,0.01,WeatherDisplay:10.37,2013-12-08 10:53:00,
2013-12-08 05:58:00,36.0,33.6,30.33,East,89,9.2,9.2,91,0.00,,,0.01,WeatherDisplay:10.37,2013-12-08 10:58:00,
2013-12-08 06:03:00,36.0,33.6,30.32,East,85,9.0,9.0,91,0.00,,,0.01,WeatherDisplay:10.37,2013-12-08 11:03:00,
2013-12-08 06:08:00,36.0,33.6,30.31,East,84,13.0,13.0,91,0.00,,,0.01,WeatherDisplay:10.37,2013-12-08 11:08:00,
2013-12-08 06:13:00,35.9,33.8,30.31,ESE,108,11.5,11.5,92,0.00,,,0.01,WeatherDisplay:10.37,2013-12-08 11:13:00,
2013-12-08 06:18:00,35.9,33.8,30.30,ENE,77,12.7,12.7,92,0.00,,,0.01,WeatherDisplay:10.37,2013-12-08 11:18:00,
2013-12-08 06:23:00,35.9,33.8,30.30,ENE,75,11.5,11.5,92,0.00,,,0.01,WeatherDisplay:10.37,2013-12-08 11:23:00,
2013-12-08 06:28:00,35.9,33.8,30.32,NE,51,10.4,10.4,92,0.00,,,0.01,WeatherDisplay:10.37,2013-12-08 11:28:00,
2013-12-08 06:33:00,35.9,33.8,30.31,ESE,103,10.4,10.4,92,0.00,,,0.01,WeatherDisplay:10.37,2013-12-08 11:33:00,
2013-12-08 06:38:00,35.9,33.8,30.31,ENE,77,11.5,11.5,92,0.00,,,0.01,WeatherDisplay:10.37,2013-12-08 11:38:00,
2013-12-08 06:43:00,35.9,33.8,30.31,ESE,113,8.1,8.1,92,0.00,,,0.01,WeatherDisplay:10.37,2013-12-08 11:43:00,
2013-12-08 06:48:00,35.9,33.8,30.32,ESE,104,11.5,11.5,92,0.01,RA,,0.02,WeatherDisplay:10.37,2013-12-08 11:48:00,
2013-12-08 06:53:00,35.8,33.7,30.31,ENE,77,16.0,16.0,92,0.03,RA,,0.05,WeatherDisplay:10.37,2013-12-08 11:53:00,
2013-12-08 06:58:00,35.6,33.8,30.31,ENE,74,11.0,11.0,93,0.04,RA,,0.06,WeatherDisplay:10.37,2013-12-08 11:58:00,
2013-12-08 07:03:00,35.6,33.8,30.31,North,359,11.5,11.5,93,0.05,RA,,0.06,WeatherDisplay:10.37,2013-12-08 12:03:00,
2013-12-08 07:08:00,35.6,33.8,30.32,ENE,68,11.5,11.5,93,0.05,RA,,0.06,WeatherDisplay:10.37,2013-12-08 12:08:00,
2013-12-08 07:13:00,35.7,33.9,30.30,ENE,70,15.0,15.0,93,0.05,CLR,,0.06,WeatherDisplay:10.37,2013-12-08 12:13:00,
2013-12-08 07:18:00,35.8,34.0,30.31,ENE,78,7.0,7.4,93,0.05,CLR,,0.06,WeatherDisplay:10.37,2013-12-08 12:18:00,
2013-12-08 07:23:00,35.9,34.1,30.31,East,88,11.5,11.5,93,0.05,CLR,,0.06,WeatherDisplay:10.37,2013-12-08 12:23:00,
2013-12-08 07:28:00,36.0,34.2,30.31,East,79,11.5,11.5,93,0.05,CLR,,0.06,WeatherDisplay:10.37,2013-12-08 12:28:00,
2013-12-08 07:33:00,36.1,34.3,30.31,East,84,11.5,11.5,93,0.05,CLR,,0.06,WeatherDisplay:10.37,2013-12-08 12:33:00,
2013-12-08 07:38:00,36.2,34.4,30.31,ESE,115,10.0,10.0,93,0.05,CLR,,0.06,WeatherDisplay:10.37,2013-12-08 12:38:00,
2013-12-08 07:43:00,36.2,34.1,30.31,East,82,10.0,10.0,92,0.05,CLR,,0.06,WeatherDisplay:10.37,2013-12-08 12:43:00,
2013-12-08 07:48:00,36.3,34.2,30.30,East,90,12.7,12.7,92,0.04,CLR,,0.06,WeatherDisplay:10.37,2013-12-08 12:48:00,
2013-12-08 07:53:00,36.3,34.2,30.30,East,85,11.5,11.5,92,0.02,CLR,,0.06,WeatherDisplay:10.37,2013-12-08 12:53:00,
2013-12-08 07:58:00,36.3,34.5,30.30,East,81,11.5,11.5,93,0.01,CLR,,0.06,WeatherDisplay:10.37,2013-12-08 12:58:00,
2013-12-08 08:03:00,36.3,34.2,30.29,East,95,13.8,13.8,92,0.00,CLR,,0.06,WeatherDisplay:10.37,2013-12-08 13:03:00,
2013-12-08 08:08:00,36.3,34.2,30.29,East,93,10.4,10.4,92,0.00,CLR,,0.06,WeatherDisplay:10.37,2013-12-08 13:08:00,
2013-12-08 08:13:00,36.4,34.3,30.27,East,89,11.5,11.5,92,0.00,CLR,,0.06,WeatherDisplay:10.37,2013-12-08 13:13:00,
2013-12-08 08:18:00,36.4,34.3,30.28,East,87,13.8,13.8,92,0.00,CLR,,0.06,WeatherDisplay:10.37,2013-12-08 13:18:00,
2013-12-08 08:23:00,36.4,34.3,30.27,ENE,64,11.5,11.5,92,0.00,CLR,,0.06,WeatherDisplay:10.37,2013-12-08 13:23:00,
2013-12-08 08:28:00,36.5,34.4,30.27,ENE,71,13.8,13.8,92,0.00,CLR,,0.06,WeatherDisplay:10.37,2013-12-08 13:28:00,
2013-12-08 08:33:00,36.6,34.5,30.27,ENE,60,10.4,10.4,92,0.00,CLR,,0.06,WeatherDisplay:10.37,2013-12-08 13:33:00,
2013-12-08 08:38:00,36.6,34.2,30.28,East,90,10.4,10.4,91,0.00,CLR,,0.06,WeatherDisplay:10.37,2013-12-08 13:38:00,
2013-12-08 08:43:00,36.7,34.3,30.28,ENE,69,10.4,10.4,91,0.00,CLR,,0.06,WeatherDisplay:10.37,2013-12-08 13:43:00,
2013-12-08 08:49:00,36.8,34.4,30.28,East,100,10.4,10.4,91,0.00,CLR,,0.06,WeatherDisplay:10.37,2013-12-08 13:49:00,
2013-12-08 08:54:00,36.9,34.5,30.28,East,80,11.5,11.5,91,0.00,CLR,,0.06,WeatherDisplay:10.37,2013-12-08 13:54:00,
2013-12-08 08:59:00,37.0,34.3,30.28,East,88,11.5,11.5,90,0.00,CLR,,0.06,WeatherDisplay:10.37,2013-12-08 13:59:00,
2013-12-08 09:04:00,37.1,34.7,30.28,ESE,123,12.7,12.7,91,0.00,CLR,,0.06,WeatherDisplay:10.37,2013-12-08 14:04:00,
2013-12-08 09:09:00,37.2,34.5,30.28,East,80,13.0,13.0,90,0.00,CLR,,0.06,WeatherDisplay:10.37,2013-12-08 14:09:00,
2013-12-08 09:14:00,37.3,34.6,30.29,ENE,67,10.4,10.4,90,0.00,CLR,,0.06,WeatherDisplay:10.37,2013-12-08 14:14:00,
2013-12-08 09:19:00,37.5,34.8,30.28,East,88,11.5,11.5,90,0.00,CLR,,0.06,WeatherDisplay:10.37,2013-12-08 14:19:00,
2013-12-08 09:24:00,37.6,34.9,30.28,East,82,8.1,8.1,90,0.00,CLR,,0.06,WeatherDisplay:10.37,2013-12-08 14:24:00,
2013-12-08 09:29:00,37.8,35.1,30.28,NNE,16,11.5,11.5,90,0.00,CLR,,0.06,WeatherDisplay:10.37,2013-12-08 14:29:00,
2013-12-08 09:34:00,37.9,34.9,30.27,East,91,13.8,13.8,89,0.00,CLR,,0.06,WeatherDisplay:10.37,2013-12-08 14:34:00,
2013-12-08 09:39:00,38.0,35.0,30.27,East,81,9.2,9.2,89,0.00,CLR,,0.06,WeatherDisplay:10.37,2013-12-08 14:39:00,
2013-12-08 09:44:00,38.1,35.1,30.29,ENE,73,11.5,11.5,89,0.00,CLR,,0.06,WeatherDisplay:10.37,2013-12-08 14:44:00,
2013-12-08 09:49:00,38.1,35.1,30.29,ENE,64,6.9,6.9,89,0.00,CLR,,0.06,WeatherDisplay:10.37,2013-12-08 14:49:00,
2013-12-08 09:54:00,38.3,35.3,30.29,East,101,11.5,11.5,89,0.00,CLR,,0.06,WeatherDisplay:10.37,2013-12-08 14:54:00,
2013-12-08 09:59:00,38.3,35.3,30.29,ENE,64,12.7,12.7,89,0.00,CLR,,0.06,WeatherDisplay:10.37,2013-12-08 14:59:00,
2013-12-08 10:04:00,38.3,35.3,30.29,East,95,11.5,11.5,89,0.00,CLR,,0.06,WeatherDisplay:10.37,2013-12-08 15:04:00,
2013-12-08 10:09:00,38.3,35.3,30.29,ESE,106,13.8,13.8,89,0.00,CLR,,0.06,WeatherDisplay:10.37,2013-12-08 15:09:00,
2013-12-08 10:14:00,38.3,35.3,30.28,ENE,74,16.1,16.1,89,0.00,CLR,,0.06,WeatherDisplay:10.37,2013-12-08 15:14:00,
2013-12-08 10:19:00,38.3,35.3,30.28,East,82,11.5,11.5,89,0.00,CLR,,0.06,WeatherDisplay:10.37,2013-12-08 15:19:00,
2013-12-08 10:24:00,38.3,35.1,30.29,East,94,9.2,9.2,88,0.00,CLR,,0.06,WeatherDisplay:10.37,2013-12-08 15:24:00,
2013-12-08 10:29:00,38.4,35.2,30.29,ENE,65,12.7,12.7,88,0.00,CLR,,0.06,WeatherDisplay:10.37,2013-12-08 15:29:00,
2013-12-08 10:34:00,38.5,35.3,30.28,East,84,12.7,12.7,88,0.00,CLR,,0.06,WeatherDisplay:10.37,2013-12-08 15:34:00,
2013-12-08 10:39:00,38.6,35.6,30.28,ENE,74,10.4,10.4,89,0.00,CLR,,0.06,WeatherDisplay:10.37,2013-12-08 15:39:00,
2013-12-08 10:44:00,38.7,35.5,30.28,East,85,11.5,11.5,88,0.00,CLR,,0.06,WeatherDisplay:10.37,2013-12-08 15:44:00,
2013-12-08 10:49:00,38.8,35.6,30.28,ENE,76,11.5,11.5,88,0.00,CLR,,0.06,WeatherDisplay:10.37,2013-12-08 15:49:00,
2013-12-08 10:54:00,39.0,35.7,30.28,East,101,9.2,9.2,88,0.00,CLR,,0.06,WeatherDisplay:10.37,2013-12-08 15:54:00,
2013-12-08 10:59:00,39.1,35.8,30.28,East,82,8.1,8.1,88,0.00,CLR,,0.06,WeatherDisplay:10.37,2013-12-08 15:59:00,
2013-12-08 11:04:00,38.9,35.4,30.27,ENE,61,11.5,11.5,87,0.00,CLR,,0.06,WeatherDisplay:10.37,2013-12-08 16:04:00,
2013-12-08 11:09:00,38.8,35.3,30.27,East,81,11.5,11.5,87,0.00,CLR,,0.06,WeatherDisplay:10.37,2013-12-08 16:09:00,
2013-12-08 11:14:00,38.7,35.2,30.27,East,81,10.4,10.4,87,0.00,CLR,,0.06,WeatherDisplay:10.37,2013-12-08 16:14:00,
2013-12-08 11:19:00,38.8,35.3,30.28,ENE,69,12.0,12.0,87,0.00,CLR,,0.06,WeatherDisplay:10.37,2013-12-08 16:19:00,
2013-12-08 11:24:00,38.9,35.4,30.27,East,89,10.4,10.4,87,0.00,CLR,,0.06,WeatherDisplay:10.37,2013-12-08 16:24:00,
2013-12-08 11:29:00,39.1,35.6,30.27,East,94,9.0,9.0,87,0.00,CLR,,0.06,WeatherDisplay:10.37,2013-12-08 16:29:00,
2013-12-08 11:34:00,39.1,35.3,30.28,East,89,13.8,13.8,86,0.00,CLR,,0.06,WeatherDisplay:10.37,2013-12-08 16:34:00,
2013-12-08 11:39:00,39.1,35.6,30.28,ENE,71,9.2,9.2,87,0.00,CLR,,0.06,WeatherDisplay:10.37,2013-12-08 16:39:00,
2013-12-08 11:44:00,39.0,35.2,30.28,East,85,9.2,9.2,86,0.00,CLR,,0.06,WeatherDisplay:10.37,2013-12-08 16:44:00,
2013-12-08 11:49:00,38.9,35.4,30.26,East,92,13.8,13.8,87,0.00,CLR,,0.06,WeatherDisplay:10.37,2013-12-08 16:49:00,
2013-12-08 11:54:00,38.9,35.4,30.26,ENE,73,11.5,11.5,87,0.00,CLR,,0.06,WeatherDisplay:10.37,2013-12-08 16:54:00,
2013-12-08 11:59:00,38.7,34.9,30.27,East,91,11.5,11.5,86,0.00,CLR,,0.06,WeatherDisplay:10.37,2013-12-08 16:59:00,
2013-12-08 12:04:00,38.9,35.1,30.26,East,82,16.1,16.1,86,0.00,CLR,,0.06,WeatherDisplay:10.37,2013-12-08 17:04:00,
2013-12-08 12:09:00,39.3,35.8,30.25,ENE,78,11.5,11.5,87,0.00,CLR,,0.06,WeatherDisplay:10.37,2013-12-08 17:09:00,
2013-12-08 12:14:00,39.5,35.7,30.25,East,85,15.0,15.0,86,0.00,CLR,,0.06,WeatherDisplay:10.37,2013-12-08 17:14:00,
2013-12-08 12:19:00,39.5,35.7,30.25,East,82,16.0,16.0,86,0.00,CLR,,0.06,WeatherDisplay:10.37,2013-12-08 17:19:00,
2013-12-08 12:24:00,39.5,35.7,30.24,ENE,74,13.8,13.8,86,0.00,CLR,,0.06,WeatherDisplay:10.37,2013-12-08 17:24:00,
2013-12-08 12:29:00,39.5,35.7,30.25,ENE,73,15.0,15.0,86,0.00,CLR,,0.06,WeatherDisplay:10.37,2013-12-08 17:29:00,
2013-12-08 12:34:00,39.6,35.8,30.25,ENE,77,10.4,10.4,86,0.00,CLR,,0.06,WeatherDisplay:10.37,2013-12-08 17:34:00,
2013-12-08 12:39:00,39.6,35.8,30.24,ESE,109,9.2,9.2,86,0.00,CLR,,0.06,WeatherDisplay:10.37,2013-12-08 17:39:00,
2013-12-08 12:44:00,39.6,35.8,30.25,East,80,9.2,9.2,86,0.00,CLR,,0.06,WeatherDisplay:10.37,2013-12-08 17:44:00,
2013-12-08 12:49:00,39.5,35.4,30.25,East,91,11.5,11.5,85,0.00,CLR,,0.06,WeatherDisplay:10.37,2013-12-08 17:49:00,
2013-12-08 12:54:00,39.4,35.3,30.25,East,87,11.5,11.5,85,0.00,CLR,,0.06,WeatherDisplay:10.37,2013-12-08 17:54:00,
2013-12-08 12:59:00,39.3,35.2,30.25,East,85,12.7,12.7,85,0.00,CLR,,0.06,WeatherDisplay:10.37,2013-12-08 17:59:00,
2013-12-08 13:04:00,39.2,35.1,30.25,East,82,15.0,15.0,85,0.00,CLR,,0.06,WeatherDisplay:10.37,2013-12-08 18:04:00,
2013-12-08 13:09:00,39.1,35.0,30.25,ESE,123,11.5,11.5,85,0.00,CLR,,0.06,WeatherDisplay:10.37,2013-12-08 18:09:00,
2013-12-08 13:14:00,39.2,35.4,30.24,ESE,102,10.4,10.4,86,0.00,CLR,,0.06,WeatherDisplay:10.37,2013-12-08 18:14:00,
2013-12-08 13:19:00,39.1,35.3,30.24,ENE,78,11.5,11.5,86,0.00,CLR,,0.06,WeatherDisplay:10.37,2013-12-08 18:19:00,
2013-12-08 13:24:00,39.2,35.4,30.24,East,84,11.5,11.5,86,0.00,CLR,,0.06,WeatherDisplay:10.37,2013-12-08 18:24:00,
2013-12-08 13:29:00,39.2,35.1,30.23,ESE,106,13.8,13.8,85,0.00,CLR,,0.06,WeatherDisplay:10.37,2013-12-08 18:29:00,
2013-12-08 13:34:00,39.0,34.9,30.23,East,82,13.8,13.8,85,0.00,CLR,,0.06,WeatherDisplay:10.37,2013-12-08 18:34:00,
2013-12-08 13:39:00,38.9,34.8,30.23,ENE,65,17.3,17.3,85,0.00,CLR,,0.06,WeatherDisplay:10.37,2013-12-08 18:39:00,
2013-12-08 13:44:00,38.7,34.6,30.22,ENE,58,13.8,13.8,85,0.00,CLR,,0.06,WeatherDisplay:10.37,2013-12-08 18:44:00,
2013-12-08 13:49:00,38.5,34.4,30.23,ESE,105,13.8,13.8,85,0.00,CLR,,0.06,WeatherDisplay:10.37,2013-12-08 18:49:00,
2013-12-08 13:54:00,38.4,34.6,30.22,East,84,15.0,15.0,86,0.00,CLR,,0.06,WeatherDisplay:10.37,2013-12-08 18:54:00,
2013-12-08 13:59:00,38.5,34.7,30.22,ENE,78,13.8,13.8,86,0.00,CLR,,0.06,WeatherDisplay:10.37,2013-12-08 18:59:00,
2013-12-08 14:04:00,38.4,34.3,30.23,ENE,71,14.0,14.0,85,0.00,CLR,,0.06,WeatherDisplay:10.37,2013-12-08 19:04:00,
2013-12-08 14:09:00,38.4,34.6,30.22,ENE,61,15.0,15.0,86,0.00,CLR,,0.06,WeatherDisplay:10.37,2013-12-08 19:09:00,
2013-12-08 14:14:00,38.4,34.6,30.22,ENE,68,12.7,12.7,86,0.00,CLR,,0.06,WeatherDisplay:10.37,2013-12-08 19:14:00,
2013-12-08 14:19:00,38.4,34.3,30.22,East,81,15.0,15.0,85,0.00,CLR,,0.06,WeatherDisplay:10.37,2013-12-08 19:19:00,
2013-12-08 14:25:00,38.4,34.3,30.22,ENE,61,16.1,16.1,85,0.00,CLR,,0.06,WeatherDisplay:10.37,2013-12-08 19:25:00,
2013-12-08 14:29:00,38.6,34.8,30.23,ENE,63,10.4,10.4,86,0.00,CLR,,0.06,WeatherDisplay:10.37,2013-12-08 19:29:00,
2013-12-08 14:35:00,38.5,34.4,30.23,ENE,77,13.8,13.8,85,0.00,CLR,,0.06,WeatherDisplay:10.37,2013-12-08 19:35:00,
2013-12-08 14:40:00,38.5,34.7,30.22,East,87,11.5,11.5,86,0.00,CLR,,0.06,WeatherDisplay:10.37,2013-12-08 19:40:00,
2013-12-08 14:45:00,38.5,34.7,30.23,East,89,11.5,11.5,86,0.00,CLR,,0.06,WeatherDisplay:10.37,2013-12-08 19:45:00,
2013-12-08 14:50:00,38.3,34.8,30.22,East,94,11.5,11.5,87,0.00,CLR,,0.06,WeatherDisplay:10.37,2013-12-08 19:50:00,
2013-12-08 14:55:00,38.2,35.0,30.22,ENE,76,6.0,12.0,88,0.00,CLR,,0.06,WeatherDisplay:10.37,2013-12-08 19:55:00,
2013-12-08 15:00:00,38.2,35.0,30.22,ENE,74,11.5,11.5,88,0.00,CLR,,0.06,WeatherDisplay:10.37,2013-12-08 20:00:00,
2013-12-08 15:05:00,38.1,35.1,30.22,East,84,11.5,11.5,89,0.00,CLR,,0.06,WeatherDisplay:10.37,2013-12-08 20:05:00,
2013-12-08 15:10:00,37.8,35.1,30.22,ENE,74,8.1,8.1,90,0.01,RA,,0.07,WeatherDisplay:10.37,2013-12-08 20:10:00,
2013-12-08 15:15:00,37.7,35.3,30.22,ENE,78,3.0,7.0,91,0.00,RA,,0.07,WeatherDisplay:10.37,2013-12-08 20:15:00,
2013-12-08 15:20:00,37.6,35.5,30.22,East,81,7.0,7.0,92,0.01,CLR,,0.07,WeatherDisplay:10.37,2013-12-08 20:20:00,
2013-12-08 15:25:00,37.5,35.4,30.22,East,82,8.0,14.0,92,0.00,CLR,,0.07,WeatherDisplay:10.37,2013-12-08 20:25:00,
2013-12-08 15:30:00,37.3,34.9,30.22,East,82,8.0,15.0,91,0.00,CLR,,0.07,WeatherDisplay:10.37,2013-12-08 20:30:00,
2013-12-08 15:35:00,37.2,34.8,30.22,East,84,9.0,13.0,91,0.00,CLR,,0.07,WeatherDisplay:10.37,2013-12-08 20:35:00,
2013-12-08 15:40:00,37.0,34.6,30.22,ENE,73,11.5,11.5,91,0.01,CLR,,0.07,WeatherDisplay:10.37,2013-12-08 20:40:00,
2013-12-08 15:45:00,36.9,34.5,30.22,ENE,77,12.7,12.7,91,0.01,CLR,,0.07,WeatherDisplay:10.37,2013-12-08 20:45:00,
2013-12-08 15:50:00,36.7,34.3,30.21,ENE,75,13.0,13.0,91,0.01,CLR,,0.07,WeatherDisplay:10.37,2013-12-08 20:50:00,
2013-12-08 15:55:00,36.6,34.2,30.21,East,80,8.0,16.0,91,0.00,CLR,,0.07,WeatherDisplay:10.37,2013-12-08 20:55:00,
2013-12-08 16:00:00,36.5,34.4,30.22,NE,35,10.4,10.4,92,0.01,CLR,,0.07,WeatherDisplay:10.37,2013-12-08 21:00:00,
2013-12-08 16:05:00,36.4,34.3,30.22,East,82,9.0,15.0,92,0.00,CLR,,0.07,WeatherDisplay:10.37,2013-12-08 21:05:00,
2013-12-08 16:10:00,36.4,34.3,30.22,East,79,8.0,14.0,92,0.00,CLR,,0.07,WeatherDisplay:10.37,2013-12-08 21:10:00,
2013-12-08 16:15:00,36.4,34.3,30.23,East,80,8.0,14.0,92,0.00,CLR,,0.07,WeatherDisplay:10.37,2013-12-08 21:15:00,
2013-12-08 16:20:00,36.4,34.3,30.22,ENE,77,13.0,13.0,92,0.00,CLR,,0.07,WeatherDisplay:10.37,2013-12-08 21:20:00,
2013-12-08 16:25:00,36.4,34.3,30.21,East,82,8.0,15.0,92,0.00,CLR,,0.07,WeatherDisplay:10.37,2013-12-08 21:25:00,
2013-12-08 16:30:00,36.4,34.3,30.21,East,80,9.2,9.2,92,0.00,CLR,,0.07,WeatherDisplay:10.37,2013-12-08 21:30:00,
2013-12-08 16:35:00,36.3,34.2,30.22,East,89,13.8,13.8,92,0.00,CLR,,0.07,WeatherDisplay:10.37,2013-12-08 21:35:00,
2013-12-08 16:40:00,36.3,34.2,30.22,East,87,12.0,12.0,92,0.00,CLR,,0.07,WeatherDisplay:10.37,2013-12-08 21:40:00,
2013-12-08 16:45:00,36.2,33.8,30.22,East,85,9.0,16.0,91,0.00,CLR,,0.07,WeatherDisplay:10.37,2013-12-08 21:45:00,
2013-12-08 16:50:00,36.2,34.1,30.22,East,80,10.0,15.0,92,0.00,CLR,,0.07,WeatherDisplay:10.37,2013-12-08 21:50:00,
2013-12-08 16:55:00,36.2,34.1,30.22,ENE,77,11.0,11.0,92,0.00,CLR,,0.07,WeatherDisplay:10.37,2013-12-08 21:55:00,
2013-12-08 17:00:00,36.1,34.0,30.22,East,85,8.0,13.0,92,0.00,RA,,0.08,WeatherDisplay:10.37,2013-12-08 22:00:00,
2013-12-08 17:05:00,36.0,33.9,30.23,East,83,9.0,14.0,92,0.00,RA,,0.09,WeatherDisplay:10.37,2013-12-08 22:05:00,
2013-12-08 17:10:00,35.9,34.1,30.23,ENE,77,6.0,12.0,93,0.00,RA,,0.10,WeatherDisplay:10.37,2013-12-08 22:10:00,
2013-12-08 17:15:00,35.8,34.0,30.23,ENE,77,7.0,12.0,93,0.01,RA,,0.12,WeatherDisplay:10.37,2013-12-08 22:15:00,
2013-12-08 17:20:00,35.7,33.9,30.23,East,87,11.0,11.0,93,0.06,RA,,0.13,WeatherDisplay:10.37,2013-12-08 22:20:00,
2013-12-08 17:25:00,35.7,33.9,30.23,East,84,5.0,12.0,93,0.01,RA,,0.14,WeatherDisplay:10.37,2013-12-08 22:25:00,
2013-12-08 17:30:00,35.7,34.1,30.23,East,88,5.0,9.0,94,0.00,RA,,0.14,WeatherDisplay:10.37,2013-12-08 22:30:00,
2013-12-08 17:35:00,35.7,34.1,30.23,ENE,69,7.0,7.0,94,0.07,RA,,0.14,WeatherDisplay:10.37,2013-12-08 22:35:00,
2013-12-08 17:40:00,35.6,34.0,30.22,East,82,8.1,8.1,94,0.07,CLR,,0.14,WeatherDisplay:10.37,2013-12-08 22:40:00,
2013-12-08 17:45:00,35.6,34.0,30.22,East,84,7.0,14.0,94,0.00,,,0.14,WeatherDisplay:10.37,2013-12-08 22:45:00,
2013-12-08 17:50:00,35.5,33.9,30.22,ENE,69,10.4,10.4,94,0.07,,,0.14,WeatherDisplay:10.37,2013-12-08 22:50:00,
2013-12-08 17:55:00,35.4,33.8,30.22,East,82,6.0,12.0,94,0.00,,,0.14,WeatherDisplay:10.37,2013-12-08 22:55:00,
2013-12-08 18:00:00,35.5,34.2,30.22,East,95,6.9,6.9,95,0.06,,,0.14,WeatherDisplay:10.37,2013-12-08 23:00:00,
2013-12-08 18:05:00,35.5,33.9,30.22,East,81,11.5,11.5,94,0.05,,,0.14,WeatherDisplay:10.37,2013-12-08 23:05:00,
2013-12-08 18:10:00,35.6,34.0,30.22,East,82,6.9,6.9,94,0.05,RA,,0.15,WeatherDisplay:10.37,2013-12-08 23:10:00,
2013-12-08 18:15:00,35.7,34.1,30.23,East,79,6.0,8.0,94,0.00,RA,,0.15,WeatherDisplay:10.37,2013-12-08 23:15:00,
2013-12-08 18:20:00,35.7,34.1,30.23,East,99,10.4,10.4,94,0.03,RA,,0.16,WeatherDisplay:10.37,2013-12-08 23:20:00,
2013-12-08 18:25:00,35.7,34.1,30.22,East,90,7.0,12.0,94,0.00,RA,,0.16,WeatherDisplay:10.37,2013-12-08 23:25:00,
2013-12-08 18:30:00,35.6,34.0,30.22,East,84,11.5,11.5,94,0.02,,,0.16,WeatherDisplay:10.37,2013-12-08 23:30:00,
2013-12-08 18:35:00,35.5,33.9,30.22,East,85,7.0,13.0,94,0.00,RA,,0.17,WeatherDisplay:10.37,2013-12-08 23:35:00,
2013-12-08 18:40:00,35.5,33.9,30.22,East,91,9.0,13.0,94,0.00,RA,,0.17,WeatherDisplay:10.37,2013-12-08 23:40:00,
2013-12-08 18:45:00,35.4,33.8,30.23,East,94,10.4,10.4,94,0.03,,,0.17,WeatherDisplay:10.37,2013-12-08 23:45:00,
2013-12-08 18:50:00,35.3,33.7,30.23,East,82,8.1,8.1,94,0.03,,,0.17,WeatherDisplay:10.37,2013-12-08 23:50:00,
2013-12-08 18:55:00,35.3,33.7,30.23,East,79,6.0,10.0,94,0.00,,,0.17,WeatherDisplay:10.37,2013-12-08 23:55:00,
2013-12-08 19:00:00,35.3,33.7,30.24,East,89,8.1,8.1,94,0.03,,,0.17,WeatherDisplay:10.37,2013-12-09 00:00:00,
2013-12-08 19:05:00,35.3,33.7,30.23,East,91,10.0,10.0,94,0.04,RA,,0.18,WeatherDisplay:10.37,2013-12-09 00:05:00,
2013-12-08 19:10:00,35.3,33.7,30.23,ENE,68,11.5,11.5,94,0.03,RA,,0.18,WeatherDisplay:10.37,2013-12-09 00:10:00,
2013-12-08 19:15:00,35.4,33.8,30.24,SE,127,8.1,8.1,94,0.04,RA,,0.19,WeatherDisplay:10.37,2013-12-09 00:15:00,
2013-12-08 19:20:00,35.4,34.1,30.23,East,79,7.0,12.0,95,0.00,RA,,0.19,WeatherDisplay:10.37,2013-12-09 00:20:00,
2013-12-08 19:25:00,35.4,33.9,30.23,East,87,6.0,12.0,94,0.00,,,0.19,WeatherDisplay:10.37,2013-12-09 00:25:00,
2013-12-08 19:30:00,35.5,34.2,30.23,ESE,118,6.9,6.9,95,0.03,,,0.19,WeatherDisplay:10.37,2013-12-09 00:30:00,
2013-12-08 19:35:00,35.4,34.1,30.22,ENE,77,7.0,12.0,95,0.00,RA,,0.20,WeatherDisplay:10.37,2013-12-09 00:35:00,
2013-12-08 19:40:00,35.4,34.1,30.22,SE,127,9.2,9.2,95,0.03,RA,,0.20,WeatherDisplay:10.37,2013-12-09 00:40:00,
2013-12-08 19:45:00,35.4,34.1,30.22,ENE,78,11.0,11.0,95,0.03,,,0.20,WeatherDisplay:10.37,2013-12-09 00:45:00,
2013-12-08 19:50:00,35.3,34.0,30.22,East,85,10.4,10.4,95,0.03,,,0.20,WeatherDisplay:10.37,2013-12-09 00:50:00,
2013-12-08 19:55:00,35.3,34.0,30.22,ESE,116,9.2,9.2,95,0.03,,,0.20,WeatherDisplay:10.37,2013-12-09 00:55:00,
2013-12-08 20:00:00,35.3,34.0,30.22,East,80,6.0,12.0,95,0.00,,,0.20,WeatherDisplay:10.37,2013-12-09 01:00:00,
2013-12-08 20:05:00,35.4,34.1,30.22,East,84,9.2,9.2,95,0.02,,,0.20,WeatherDisplay:10.37,2013-12-09 01:05:00,
2013-12-08 20:10:00,35.4,34.1,30.22,East,82,12.7,12.7,95,0.02,,,0.20,WeatherDisplay:10.37,2013-12-09 01:10:00,
2013-12-08 20:15:00,35.4,34.1,30.21,East,84,7.0,10.0,95,0.00,,,0.20,WeatherDisplay:10.37,2013-12-09 01:15:00,
2013-12-08 20:20:00,35.5,34.2,30.21,ENE,73,10.0,10.0,95,0.01,,,0.20,WeatherDisplay:10.37,2013-12-09 01:20:00,
2013-12-08 20:25:00,35.5,34.2,30.22,East,86,7.0,12.0,95,0.00,,,0.20,WeatherDisplay:10.37,2013-12-09 01:25:00,
2013-12-08 20:30:00,35.6,34.3,30.22,East,87,7.0,9.0,95,0.00,,,0.20,WeatherDisplay:10.37,2013-12-09 01:30:00,
2013-12-08 20:35:00,35.6,34.3,30.22,East,82,6.0,14.0,95,0.00,,,0.20,WeatherDisplay:10.37,2013-12-09 01:35:00,
2013-12-08 20:40:00,35.6,34.0,30.22,East,95,12.7,12.7,94,0.01,RA,,0.21,WeatherDisplay:10.37,2013-12-09 01:40:00,
2013-12-08 20:45:00,35.7,34.1,30.23,East,84,6.0,12.0,94,0.00,RA,,0.21,WeatherDisplay:10.37,2013-12-09 01:45:00,
2013-12-08 20:50:00,35.7,34.4,30.23,East,82,7.0,7.0,95,0.02,RA,,0.22,WeatherDisplay:10.37,2013-12-09 01:50:00,
2013-12-08 20:55:00,35.7,34.4,30.22,East,86,3.0,7.0,95,0.00,RA,,0.23,WeatherDisplay:10.37,2013-12-09 01:55:00,
2013-12-08 21:00:00,35.7,34.4,30.21,East,88,6.9,6.9,95,0.04,RA,,0.24,WeatherDisplay:10.37,2013-12-09 02:00:00,
2013-12-08 21:05:00,35.7,34.4,30.22,East,79,6.9,6.9,95,0.04,RA,,0.25,WeatherDisplay:10.37,2013-12-09 02:05:00,
2013-12-08 21:10:00,35.6,34.4,30.21,ENE,76,3.0,6.0,95,0.00,RA,,0.25,WeatherDisplay:10.37,2013-12-09 02:10:00,
2013-12-08 21:15:00,35.7,34.4,30.21,ENE,75,6.0,6.0,95,0.06,RA,,0.26,WeatherDisplay:10.37,2013-12-09 02:15:00,
2013-12-08 21:20:00,35.7,34.4,30.21,East,99,9.2,9.2,95,0.06,RA,,0.26,WeatherDisplay:10.37,2013-12-09 02:20:00,
2013-12-08 21:25:00,35.7,34.4,30.21,East,96,6.0,12.0,95,0.00,RA,,0.27,WeatherDisplay:10.37,2013-12-09 02:25:00,
2013-12-08 21:30:00,35.7,34.4,30.21,ESE,102,5.0,10.0,95,0.00,RA,,0.27,WeatherDisplay:10.37,2013-12-09 02:30:00,
2013-12-08 21:35:00,35.7,34.4,30.21,East,98,10.4,10.4,95,0.08,RA,,0.28,WeatherDisplay:10.37,2013-12-09 02:35:00,
2013-12-08 21:40:00,35.7,34.4,30.22,ENE,75,10.4,10.4,95,0.07,RA,,0.28,WeatherDisplay:10.37,2013-12-09 02:40:00,
2013-12-08 21:45:00,35.7,34.4,30.21,East,83,8.1,8.1,95,0.07,,,0.29,WeatherDisplay:10.37,2013-12-09 02:45:00,
2013-12-08 21:50:00,35.7,34.4,30.21,ENE,77,9.2,9.2,95,0.07,RA,,0.29,WeatherDisplay:10.37,2013-12-09 02:50:00,
2013-12-08 21:55:00,35.8,34.5,30.21,East,85,6.0,12.0,95,0.00,RA,,0.30,WeatherDisplay:10.37,2013-12-09 02:55:00,
2013-12-08 22:00:00,35.8,34.5,30.20,East,99,9.0,9.0,95,0.07,RA,,0.31,WeatherDisplay:10.37,2013-12-09 03:00:00,
2013-12-08 22:05:00,35.8,34.5,30.20,ENE,70,9.0,9.0,95,0.07,RA,,0.31,WeatherDisplay:10.37,2013-12-09 03:05:00,
2013-12-08 22:10:00,35.7,34.4,30.20,East,82,3.0,8.0,95,0.00,RA,,0.32,WeatherDisplay:10.37,2013-12-09 03:10:00,
2013-12-08 22:15:00,35.8,34.5,30.20,East,90,5.8,5.8,95,0.06,RA,,0.32,WeatherDisplay:10.37,2013-12-09 03:15:00,
2013-12-08 22:20:00,35.9,34.9,30.20,East,79,6.0,9.0,96,0.01,RA,,0.33,WeatherDisplay:10.37,2013-12-09 03:20:00,
2013-12-08 22:25:00,35.9,34.9,30.20,East,87,6.9,6.9,96,0.06,RA,,0.34,WeatherDisplay:10.37,2013-12-09 03:25:00,
2013-12-08 22:30:00,36.0,35.0,30.20,East,81,4.6,4.6,96,0.07,RA,,0.34,WeatherDisplay:10.37,2013-12-09 03:30:00,
2013-12-08 22:35:00,36.1,35.0,30.20,East,84,5.0,8.0,96,0.00,RA,,0.36,WeatherDisplay:10.37,2013-12-09 03:35:00,
2013-12-08 22:40:00,36.1,35.1,30.20,ENE,67,4.6,4.6,96,0.09,RA,,0.37,WeatherDisplay:10.37,2013-12-09 03:40:00,
2013-12-08 22:45:00,36.2,35.2,30.19,East,91,3.0,6.0,96,0.00,RA,,0.37,WeatherDisplay:10.37,2013-12-09 03:45:00,
2013-12-08 22:50:00,36.2,35.2,30.19,ENE,77,3.0,7.0,96,0.00,,,0.37,WeatherDisplay:10.37,2013-12-09 03:50:00,
2013-12-08 22:55:00,36.3,35.3,30.18,ENE,77,10.0,10.0,96,0.07,,,0.37,WeatherDisplay:10.37,2013-12-09 03:55:00,
2013-12-08 23:00:00,36.3,35.3,30.18,East,91,2.0,10.0,96,0.00,,,0.37,WeatherDisplay:10.37,2013-12-09 04:00:00,
2013-12-08 23:05:00,36.4,35.4,30.17,ESE,113,3.5,3.7,96,0.06,,,0.37,WeatherDisplay:10.37,2013-12-09 04:05:00,
2013-12-08 23:10:00,36.5,35.5,30.17,ENE,70,3.5,3.5,96,0.05,,,0.37,WeatherDisplay:10.37,2013-12-09 04:10:00,
2013-12-08 23:15:00,36.5,35.5,30.17,East,82,3.5,4.1,96,0.05,,,0.37,WeatherDisplay:10.37,2013-12-09 04:15:00,
2013-12-08 23:20:00,36.6,35.6,30.17,ENE,78,5.8,5.8,96,0.05,,,0.37,WeatherDisplay:10.37,2013-12-09 04:20:00,
2013-12-08 23:25:00,36.6,35.6,30.16,East,82,4.6,4.6,96,0.04,,,0.37,WeatherDisplay:10.37,2013-12-09 04:25:00,
2013-12-08 23:30:00,36.7,35.7,30.15,East,96,3.0,5.0,96,0.00,,,0.37,WeatherDisplay:10.37,2013-12-09 04:30:00,
2013-12-08 23:35:00,36.7,35.7,30.15,ENE,78,5.0,5.0,96,0.01,,,0.37,WeatherDisplay:10.37,2013-12-09 04:35:00,
2013-12-08 23:40:00,36.7,35.7,30.15,ESE,106,3.0,6.0,96,0.00,,,0.37,WeatherDisplay:10.37,2013-12-09 04:40:00,
2013-12-08 23:45:00,36.7,35.7,30.14,East,99,5.0,7.0,96,0.00,,,0.37,WeatherDisplay:10.37,2013-12-09 04:45:00,
2013-12-08 23:50:00,36.9,35.9,30.14,ENE,61,7.0,7.0,96,0.00,,,0.37,WeatherDisplay:10.37,2013-12-09 04:50:00,
2013-12-08 23:55:00,37.0,36.0,30.14,East,96,3.0,5.0,96,0.00,,,0.37,WeatherDisplay:10.37,2013-12-09 04:55:00,